Location: *
(50.8512°N, 5.6907°E)
Time: 15:35:50
(UTC+00:00)

SL-08 R/B - Pass Details

Date: 09 April 2020
Orbit: 951 x 1018 km, 82.9° (Epoch: 29 May)

Event Time Altitude Azimuth Distance (km) Brightness Sun altitude
Rises 20:24:46 0° 351° (N) 3,643 8.3 -17.9°
Reaches altitude 10° 20:27:16 10° 353° (N) 2,697 7.5 -18.2°
Maximum altitude 20:33:26 73° 78° (ENE) 1,008 4.4 -18.9°
Enters shadow 20:36:45 29° 158° (SSE) 1,688 5.3 -19.3°
